Location: The Saddle
(36.8333°N, 80.3417°W)
Time: 04:43:49
(UTC-04:00)

Tiros 1 - Pass Details

Date: 23 January 2022
Orbit: 630 x 663 km, 48.4° (Epoch: 29 May)

Event Time Altitude Azimuth Distance (km) Brightness Sun altitude
Exits shadow 06:16:45 23° 293° (WNW) 1,358 8.2 -14.7°
Maximum altitude 06:19:32 62° 220° (SW) 726 7.2 -14.1°
Drops below altitude 10° 06:24:07 10° 140° (SE) 2,018 10.5 -13.2°
Sets 06:26:27 0° 137° (SE) 2,919 11.6 -12.8°
